{"data":{"norad_id":66828,"epoch":"2026-05-25T03:12:34.373952Z","epoch_age_seconds":53565,"freshness":"FRESH","line1":"1 66828U 25280H   26145.13373118  .00003612  00000+0  31030-3 0  9993","line2":"2 66828  70.0006 141.8286 0003902 265.3376  94.7337 14.98337935 27522","mean_motion":14.98337935,"eccentricity":0.0003902,"inclination_deg":70.0006,"raan_deg":141.8286,"arg_perigee_deg":265.3376,"mean_anomaly_deg":94.7337,"bstar":0.0003103,"rev_number":2752,"period_min":96.106490155707,"perigee_km":569.31939702854,"apogee_km":574.743308411,"semimajor_km":6950.1683527198,"source":"CELESTRAK","updated_at":"2026-05-25T13:38:21.335032Z"}}